Time,TemperatureF,DewpointF,PressureIn,WindDirection,WindDirectionDegrees,WindSpeedMPH,WindSpeedGustMPH,Humidity,HourlyPrecipIn,Conditions,Clouds,dailyrainin,SolarRadiationWatts/m^2,SoftwareType,DateUTC
2013-06-12 00:06:00,52.4,48.0,30.09,WSW,244,0.0,-999.0,86,-99.99,,,0.01,0,weatherlink.com 1.10,2013-06-12 07:06:00,
2013-06-12 00:21:00,52.4,48.0,30.10,WSW,244,0.0,-999.0,86,-99.99,,,0.00,0,weatherlink.com 1.10,2013-06-12 07:21:00,
2013-06-12 00:36:00,52.4,48.0,30.10,WSW,244,0.0,-999.0,86,-99.99,,,0.00,0,weatherlink.com 1.10,2013-06-12 07:36:00,
2013-06-12 00:51:00,52.3,48.0,30.10,WSW,240,0.0,-999.0,86,-99.99,,,0.00,0,weatherlink.com 1.10,2013-06-12 07:51:00,
2013-06-12 01:06:00,52.2,48.0,30.10,WSW,240,0.0,-999.0,86,-99.99,,,0.00,0,weatherlink.com 1.10,2013-06-12 08:06:00,
2013-06-12 01:21:00,52.0,48.0,30.10,WSW,240,3.0,-999.0,86,-99.99,,,0.00,0,weatherlink.com 1.10,2013-06-12 08:21:00,
2013-06-12 01:36:00,52.0,48.0,30.10,WSW,240,3.0,-999.0,86,-99.99,,,0.00,0,weatherlink.com 1.10,2013-06-12 08:36:00,
2013-06-12 01:51:00,52.0,48.0,30.10,WSW,241,0.0,-999.0,86,-99.99,,,0.00,0,weatherlink.com 1.10,2013-06-12 08:51:00,
2013-06-12 02:06:00,52.1,48.0,30.10,WSW,241,0.0,-999.0,86,-99.99,,,0.00,0,weatherlink.com 1.10,2013-06-12 09:06:00,
2013-06-12 02:21:00,52.1,48.0,30.10,SSW,204,0.0,-999.0,87,-99.99,,,0.00,0,weatherlink.com 1.10,2013-06-12 09:21:00,
2013-06-12 02:36:00,51.8,48.0,30.10,SSW,203,0.0,-999.0,88,-99.99,,,0.00,0,weatherlink.com 1.10,2013-06-12 09:36:00,
2013-06-12 02:52:00,51.7,48.0,30.10,SSW,203,0.0,-999.0,88,-99.99,,,0.00,0,weatherlink.com 1.10,2013-06-12 09:52:00,
2013-06-12 03:06:00,51.5,48.0,30.10,SSW,192,0.0,-999.0,88,-99.99,,,0.00,0,weatherlink.com 1.10,2013-06-12 10:06:00,
2013-06-12 03:22:00,51.5,48.0,30.10,SSW,192,2.0,-999.0,88,-99.99,,,0.00,0,weatherlink.com 1.10,2013-06-12 10:22:00,
2013-06-12 03:37:00,51.5,48.0,30.10,SSW,192,0.0,-999.0,88,-99.99,,,0.00,0,weatherlink.com 1.10,2013-06-12 10:37:00,
2013-06-12 03:52:00,51.5,48.0,30.10,SSW,192,2.0,-999.0,88,-99.99,,,0.00,0,weatherlink.com 1.10,2013-06-12 10:52:00,
2013-06-12 04:07:00,51.7,48.0,30.10,ESE,118,1.0,-999.0,88,-99.99,,,0.00,0,weatherlink.com 1.10,2013-06-12 11:07:00,
2013-06-12 04:22:00,51.6,48.0,30.10,ESE,117,1.0,-999.0,88,-99.99,,,0.00,0,weatherlink.com 1.10,2013-06-12 11:22:00,
2013-06-12 04:37:00,51.4,48.0,30.10,ESE,116,0.0,-999.0,88,-99.99,,,0.00,0,weatherlink.com 1.10,2013-06-12 11:37:00,
2013-06-12 04:52:00,51.2,48.0,30.10,ESE,103,0.0,-999.0,88,-99.99,,,0.00,0,weatherlink.com 1.10,2013-06-12 11:52:00,
2013-06-12 05:07:00,51.3,48.0,30.10,ESE,103,0.0,-999.0,89,-99.99,,,0.00,0,weatherlink.com 1.10,2013-06-12 12:07:00,
2013-06-12 05:22:00,51.6,49.0,30.10,ESE,110,0.0,-999.0,89,-99.99,,,0.00,7,weatherlink.com 1.10,2013-06-12 12:22:00,
2013-06-12 05:37:00,51.8,49.0,30.10,SE,128,4.0,-999.0,89,-99.99,,,0.00,7,weatherlink.com 1.10,2013-06-12 12:37:00,
2013-06-12 05:52:00,52.1,49.0,30.11,ESE,117,7.0,-999.0,88,-99.99,,,0.00,11,weatherlink.com 1.10,2013-06-12 12:52:00,
2013-06-12 06:07:00,52.0,48.0,30.11,ESE,103,6.0,-999.0,87,-99.99,,,0.00,32,weatherlink.com 1.10,2013-06-12 13:07:00,
2013-06-12 06:22:00,51.5,48.0,30.11,East,101,3.0,-999.0,88,-99.99,,,0.00,53,weatherlink.com 1.10,2013-06-12 13:22:00,
2013-06-12 06:37:00,51.5,48.0,30.12,SSE,148,4.0,-999.0,89,-99.99,,,0.00,40,weatherlink.com 1.10,2013-06-12 13:37:00,
2013-06-12 06:52:00,51.3,48.0,30.12,SSE,153,2.0,-999.0,89,-99.99,,,0.00,54,weatherlink.com 1.10,2013-06-12 13:52:00,
2013-06-12 07:07:00,51.1,48.0,30.12,ESE,116,5.0,-999.0,89,-99.99,,,0.00,176,weatherlink.com 1.10,2013-06-12 14:07:00,
2013-06-12 07:22:00,51.4,48.0,30.12,SE,142,3.0,-999.0,89,-99.99,,,0.00,141,weatherlink.com 1.10,2013-06-12 14:22:00,
2013-06-12 07:36:00,51.8,49.0,30.12,SSE,157,6.0,-999.0,89,-99.99,,,0.00,172,weatherlink.com 1.10,2013-06-12 14:36:00,
2013-06-12 07:53:00,52.2,49.0,30.12,SE,129,5.0,-999.0,87,-99.99,,,0.00,169,weatherlink.com 1.10,2013-06-12 14:53:00,
2013-06-12 08:08:00,52.6,49.0,30.12,SSE,159,6.0,-999.0,87,-99.99,,,0.00,149,weatherlink.com 1.10,2013-06-12 15:08:00,
2013-06-12 08:22:00,52.8,49.0,30.12,SE,140,5.0,-999.0,86,-99.99,,,0.00,183,weatherlink.com 1.10,2013-06-12 15:22:00,
2013-06-12 08:37:00,53.2,49.0,30.12,SE,142,12.0,-999.0,86,-99.99,,,0.00,276,weatherlink.com 1.10,2013-06-12 15:37:00,
2013-06-12 08:52:00,53.3,49.0,30.12,ESE,123,5.0,-999.0,85,-99.99,,,0.00,283,weatherlink.com 1.10,2013-06-12 15:52:00,
2013-06-12 09:07:00,53.7,49.0,30.12,East,99,13.0,-999.0,85,-99.99,,,0.00,308,weatherlink.com 1.10,2013-06-12 16:07:00,
2013-06-12 09:22:00,54.2,50.0,30.13,SE,142,5.0,-999.0,84,-99.99,,,0.00,415,weatherlink.com 1.10,2013-06-12 16:22:00,
2013-06-12 09:37:00,54.8,50.0,30.13,ESE,117,7.0,-999.0,83,-99.99,,,0.00,315,weatherlink.com 1.10,2013-06-12 16:37:00,
2013-06-12 09:52:00,55.0,50.0,30.13,ESE,119,10.0,-999.0,83,-99.99,,,0.00,413,weatherlink.com 1.10,2013-06-12 16:52:00,
2013-06-12 10:07:00,55.3,50.0,30.13,SE,145,5.0,-999.0,81,-99.99,,,0.00,450,weatherlink.com 1.10,2013-06-12 17:07:00,
2013-06-12 10:22:00,56.0,50.0,30.13,SE,132,7.0,-999.0,80,-99.99,,,0.00,548,weatherlink.com 1.10,2013-06-12 17:22:00,
2013-06-12 10:37:00,56.1,50.0,30.12,SE,132,4.0,-999.0,79,-99.99,,,0.00,376,weatherlink.com 1.10,2013-06-12 17:37:00,
2013-06-12 10:52:00,56.7,50.0,30.12,SSE,162,6.0,-999.0,78,-99.99,,,0.00,385,weatherlink.com 1.10,2013-06-12 17:52:00,
2013-06-12 11:07:00,57.1,51.0,30.13,SSE,158,5.0,-999.0,79,-99.99,,,0.00,939,weatherlink.com 1.10,2013-06-12 18:07:00,
2013-06-12 11:22:00,58.9,51.0,30.12,SE,135,4.0,-999.0,74,-99.99,,,0.00,1032,weatherlink.com 1.10,2013-06-12 18:22:00,
2013-06-12 11:37:00,59.2,50.0,30.12,SE,127,5.0,-999.0,71,-99.99,,,0.00,345,weatherlink.com 1.10,2013-06-12 18:37:00,
2013-06-12 11:52:00,59.0,50.0,30.12,East,94,2.0,-999.0,71,-99.99,,,0.00,503,weatherlink.com 1.10,2013-06-12 18:52:00,
2013-06-12 12:07:00,59.6,49.0,30.12,SE,130,4.0,-999.0,69,-99.99,,,0.00,974,weatherlink.com 1.10,2013-06-12 19:07:00,
2013-06-12 12:24:00,61.0,50.0,30.12,East,94,4.0,-999.0,68,-99.99,,,0.00,390,weatherlink.com 1.10,2013-06-12 19:24:00,
2013-06-12 12:38:00,61.6,50.0,30.12,SSE,163,2.0,-999.0,66,-99.99,,,0.00,360,weatherlink.com 1.10,2013-06-12 19:38:00,
2013-06-12 12:53:00,61.8,51.0,30.12,SW,221,13.0,-999.0,67,-99.99,,,0.00,1004,weatherlink.com 1.10,2013-06-12 19:53:00,
2013-06-12 13:08:00,61.4,53.0,30.12,West,259,5.0,-999.0,73,-99.99,,,0.00,1020,weatherlink.com 1.10,2013-06-12 20:08:00,
2013-06-12 13:22:00,61.9,52.0,30.12,WSW,254,5.0,-999.0,71,-99.99,,,0.00,976,weatherlink.com 1.10,2013-06-12 20:22:00,
2013-06-12 13:38:00,62.1,52.0,30.12,West,281,4.0,-999.0,69,-99.99,,,0.00,265,weatherlink.com 1.10,2013-06-12 20:38:00,
2013-06-12 13:53:00,61.2,51.0,30.13,WNW,286,2.0,-999.0,69,-99.99,,,0.00,313,weatherlink.com 1.10,2013-06-12 20:53:00,
2013-06-12 14:07:00,60.3,51.0,30.13,WNW,291,6.0,-999.0,71,-99.99,,,0.00,475,weatherlink.com 1.10,2013-06-12 21:07:00,
2013-06-12 14:23:00,59.3,51.0,30.13,West,267,5.0,-999.0,75,-99.99,,,0.00,178,weatherlink.com 1.10,2013-06-12 21:23:00,
2013-06-12 14:38:00,56.8,50.0,30.13,West,263,6.0,-999.0,77,-99.99,,,0.00,237,weatherlink.com 1.10,2013-06-12 21:38:00,
2013-06-12 14:53:00,55.9,49.0,30.13,West,278,3.0,-999.0,78,-99.99,,,0.00,431,weatherlink.com 1.10,2013-06-12 21:53:00,
2013-06-12 15:08:00,57.3,51.0,30.12,West,274,3.0,-999.0,79,-99.99,,,0.00,881,weatherlink.com 1.10,2013-06-12 22:08:00,
2013-06-12 15:23:00,58.8,52.0,30.13,WNW,300,6.0,-999.0,77,-99.99,,,0.00,874,weatherlink.com 1.10,2013-06-12 22:23:00,
2013-06-12 15:38:00,60.6,51.0,30.13,West,267,6.0,-999.0,70,-99.99,,,0.00,824,weatherlink.com 1.10,2013-06-12 22:38:00,
2013-06-12 15:53:00,61.5,51.0,30.13,West,269,9.0,-999.0,68,-99.99,,,0.00,752,weatherlink.com 1.10,2013-06-12 22:53:00,
2013-06-12 16:09:00,61.8,50.0,30.13,NW,314,7.0,-999.0,66,-99.99,,,0.00,868,weatherlink.com 1.10,2013-06-12 23:09:00,
2013-06-12 16:24:00,61.5,50.0,30.13,NNW,330,4.0,-999.0,66,-99.99,,,0.00,571,weatherlink.com 1.10,2013-06-12 23:24:00,
2013-06-12 16:39:00,60.4,51.0,30.12,SW,217,4.0,-999.0,70,-99.99,,,0.00,343,weatherlink.com 1.10,2013-06-12 23:39:00,
2013-06-12 16:55:00,59.7,51.0,30.12,West,279,4.0,-999.0,74,-99.99,,,0.00,838,weatherlink.com 1.10,2013-06-12 23:55:00,
2013-06-12 17:08:00,59.8,51.0,30.13,WSW,252,10.0,-999.0,73,-99.99,,,0.00,650,weatherlink.com 1.10,2013-06-13 00:08:00,
2013-06-12 17:23:00,59.7,51.0,30.13,NW,319,11.0,-999.0,72,-99.99,,,0.00,552,weatherlink.com 1.10,2013-06-13 00:23:00,
2013-06-12 17:38:00,58.6,50.0,30.13,West,269,6.0,-999.0,73,-99.99,,,0.00,250,weatherlink.com 1.10,2013-06-13 00:38:00,
2013-06-12 18:10:00,55.9,50.0,30.13,North,355,2.0,-999.0,79,-99.99,,,0.00,464,weatherlink.com 1.10,2013-06-13 01:10:00,
2013-06-12 18:24:00,57.2,50.0,30.13,NW,305,3.0,-999.0,77,-99.99,,,0.00,285,weatherlink.com 1.10,2013-06-13 01:24:00,
2013-06-12 18:39:00,57.1,49.0,30.13,West,268,6.0,-999.0,75,-99.99,,,0.00,225,weatherlink.com 1.10,2013-06-13 01:39:00,
2013-06-12 18:54:00,56.4,49.0,30.12,WNW,285,2.0,-999.0,77,-99.99,,,0.00,153,weatherlink.com 1.10,2013-06-13 01:54:00,
2013-06-12 19:09:00,56.0,50.0,30.12,WNW,289,3.0,-999.0,79,-99.99,,,0.00,111,weatherlink.com 1.10,2013-06-13 02:09:00,
2013-06-12 19:24:00,55.6,50.0,30.13,WSW,257,3.0,-999.0,80,-99.99,,,0.00,93,weatherlink.com 1.10,2013-06-13 02:24:00,
2013-06-12 19:39:00,54.6,49.0,30.13,WNW,289,4.0,-999.0,82,-99.99,,,0.00,60,weatherlink.com 1.10,2013-06-13 02:39:00,
2013-06-12 19:54:00,54.3,49.0,30.13,WSW,239,5.0,-999.0,81,-99.99,,,0.00,42,weatherlink.com 1.10,2013-06-13 02:54:00,
2013-06-12 20:10:00,54.0,49.0,30.13,West,277,0.0,-999.0,82,-99.99,,,0.00,53,weatherlink.com 1.10,2013-06-13 03:10:00,
2013-06-12 20:24:00,53.9,49.0,30.12,WNW,293,0.0,-999.0,82,-99.99,,,0.00,40,weatherlink.com 1.10,2013-06-13 03:24:00,
2013-06-12 20:39:00,53.8,48.0,30.12,West,273,3.0,-999.0,82,-99.99,,,0.00,25,weatherlink.com 1.10,2013-06-13 03:39:00,
2013-06-12 20:54:00,53.6,48.0,30.13,WSW,240,1.0,-999.0,82,-99.99,,,0.00,14,weatherlink.com 1.10,2013-06-13 03:54:00,
2013-06-12 21:09:00,53.5,48.0,30.13,WSW,254,0.0,-999.0,81,-99.99,,,0.00,7,weatherlink.com 1.10,2013-06-13 04:09:00,
2013-06-12 21:25:00,53.1,48.0,30.13,West,267,0.0,-999.0,82,-99.99,,,0.00,0,weatherlink.com 1.10,2013-06-13 04:25:00,
2013-06-12 21:39:00,52.6,47.0,30.13,West,273,0.0,-999.0,82,-99.99,,,0.00,0,weatherlink.com 1.10,2013-06-13 04:39:00,
2013-06-12 21:54:00,52.1,47.0,30.13,West,273,0.0,-999.0,84,-99.99,,,0.00,0,weatherlink.com 1.10,2013-06-13 04:54:00,
2013-06-12 22:10:00,52.0,47.0,30.13,West,273,0.0,-999.0,84,-99.99,,,0.00,0,weatherlink.com 1.10,2013-06-13 05:10:00,
2013-06-12 22:25:00,52.4,47.0,30.14,West,269,2.0,-999.0,83,-99.99,,,0.00,0,weatherlink.com 1.10,2013-06-13 05:25:00,
2013-06-12 22:39:00,52.7,48.0,30.14,West,274,3.0,-999.0,83,-99.99,,,0.00,0,weatherlink.com 1.10,2013-06-13 05:39:00,
2013-06-12 22:54:00,52.7,48.0,30.14,West,259,0.0,-999.0,83,-99.99,,,0.00,0,weatherlink.com 1.10,2013-06-13 05:54:00,
2013-06-12 23:09:00,52.5,48.0,30.14,WSW,248,3.0,-999.0,83,-99.99,,,0.00,0,weatherlink.com 1.10,2013-06-13 06:09:00,
2013-06-12 23:24:00,52.4,48.0,30.14,SW,234,1.0,-999.0,84,-99.99,,,0.00,0,weatherlink.com 1.10,2013-06-13 06:24:00,
2013-06-12 23:39:00,52.6,48.0,30.14,SW,215,2.0,-999.0,83,-99.99,,,0.00,0,weatherlink.com 1.10,2013-06-13 06:39:00,
2013-06-12 23:54:00,52.7,48.0,30.14,SSW,211,0.0,-999.0,83,-99.99,,,0.00,0,weatherlink.com 1.10,2013-06-13 06:54:00,